Date,TemperatureHighF,TemperatureAvgF,TemperatureLowF,DewpointHighF,DewpointAvgF,DewpointLowF,HumidityHigh,HumidityAvg,HumidityLow,PressureMaxIn,PressureMinIn,WindSpeedMaxMPH,WindSpeedAvgMPH,GustSpeedMaxMPH,PrecipitationSumIn
2014-1-1,38,29,23,31,26,20,100,90,50,0.00,40.00,4,0,7,0.02
2014-1-2,41,30,21,26,21,18,100,74,42,0.00,40.00,11,3,22,0.01
2014-1-3,43,33,23,36,25,14,100,73,45,0.00,40.00,12,4,30,0.09
2014-1-4,27,21,18,23,15,-100,100,82,45,0.00,40.00,9,2,16,0.01
2014-1-5,27,16,5,20,13,5,100,87,56,0.00,40.00,5,1,8,0.01
2014-1-6,32,16,2,22,9,1,100,79,41,0.00,40.00,3,0,9,0.01
2014-1-7,34,28,24,25,23,18,100,80,59,0.00,40.00,3,0,7,0.00
2014-1-8,38,32,28,31,27,22,100,83,60,0.00,40.00,10,3,17,0.04
2014-1-9,35,31,29,32,23,12,100,74,46,0.00,40.00,11,4,24,0.01
2014-1-10,35,31,27,33,27,14,100,87,50,0.00,40.00,8,2,18,0.09
2014-1-11,43,35,30,38,29,-100,100,82,55,0.00,40.00,15,5,31,0.10
2014-1-12,35,33,29,29,21,15,95,63,46,0.00,40.00,9,4,26,0.01
2014-1-13,42,38,35,29,26,21,77,61,44,0.00,40.00,8,4,27,0.21
2014-1-14,46,33,24,33,28,24,100,84,49,0.00,40.00,4,1,23,0.01
2014-1-15,33,24,16,24,21,16,100,89,58,0.00,40.00,4,1,8,0.00
2014-1-16,37,23,14,22,19,14,100,84,45,0.00,40.00,2,0,7,0.00
2014-1-17,39,23,13,22,17,13,100,82,39,0.00,40.00,2,0,5,0.00
2014-1-18,43,26,15,23,17,-100,100,76,38,0.00,40.00,1,0,8,0.00
2014-1-19,49,30,17,24,19,15,99,68,28,0.00,40.00,3,1,13,0.00
2014-1-20,42,29,20,27,22,20,100,78,47,0.00,40.00,4,1,6,0.00
2014-1-21,43,26,15,24,18,15,100,77,36,0.00,40.00,4,0,7,0.00
2014-1-22,40,29,21,34,27,21,100,94,79,0.00,40.00,5,0,12,0.01
2014-1-23,41,29,20,32,24,19,100,84,41,0.00,40.00,5,1,9,0.01
2014-1-24,45,26,15,22,17,13,100,76,32,0.00,40.00,4,0,10,0.00
2014-1-25,45,26,16,22,17,-100,100,77,32,0.00,40.00,3,0,6,0.00
2014-1-26,33,24,14,24,17,13,99,74,52,0.00,40.00,3,0,11,0.00
2014-1-27,33,25,13,20,16,9,90,69,45,0.00,40.00,5,1,9,0.00
2014-1-28,29,16,3,16,8,2,100,74,37,0.00,40.00,3,0,7,0.00
2014-1-29,36,32,27,34,27,16,100,82,60,0.00,40.00,7,2,18,0.04
2014-1-30,36,30,21,32,29,21,100,98,76,0.00,40.00,4,0,9,0.10
2014-1-31,31,23,14,26,22,14,100,95,73,0.00,40.00,1,0,7,0.01
2014-2-1,27,18,9,23,13,-100,100,85,49,0.00,40.00,5,1,7,0.01
2014-2-2,28,19,6,11,9,6,100,68,49,0.00,40.00,9,4,19,0.00
2014-2-3,26,19,7,23,12,3,100,75,52,0.00,40.00,8,4,19,0.00
2014-2-4,7,0,-10,3,-9,-15,82,67,45,0.00,40.00,6,1,12,0.00
2014-2-5,0,-8,-19,-10,-17,-25,82,66,45,0.00,40.00,6,1,11,0.00
2014-2-6,2,-14,-27,-12,-24,-35,75,60,38,0.00,40.00,4,0,6,0.00
2014-2-7,31,12,-6,18,5,-12,95,75,51,0.00,40.00,5,1,10,0.00
2014-2-8,16,13,10,16,10,6,100,87,66,0.00,40.00,3,0,8,0.00
2014-2-9,25,16,11,20,12,7,100,88,61,0.00,40.00,2,0,8,0.00
2014-2-10,40,26,16,26,21,16,100,81,55,0.00,40.00,8,2,14,0.05
2014-2-11,38,32,21,35,26,16,100,78,40,0.00,40.00,6,2,17,0.24
2014-2-12,45,35,20,33,27,18,100,74,39,0.00,40.00,13,6,30,0.29
2014-2-13,43,37,32,37,23,8,100,63,29,0.00,40.00,14,5,35,0.22
2014-2-14,34,30,22,34,26,14,100,85,57,0.00,40.00,12,4,25,0.06
2014-2-15,42,33,22,34,28,-100,100,85,69,0.00,40.00,12,5,28,0.10
2014-2-16,43,35,30,37,22,9,100,64,33,0.00,40.00,11,4,39,0.11
2014-2-17,47,36,29,32,17,10,100,48,27,0.00,40.00,9,5,30,0.01
2014-2-18,45,35,29,30,22,17,100,63,34,0.00,40.00,13,4,24,0.07
2014-2-19,39,28,22,33,22,10,100,79,40,0.00,40.00,11,2,23,0.05
2014-2-20,34,25,17,28,21,15,100,85,58,0.00,40.00,10,2,28,0.01
2014-2-21,35,30,23,29,22,14,100,74,51,0.00,40.00,10,2,21,0.05
2014-2-22,27,22,18,23,18,-100,100,89,60,0.00,40.00,3,0,8,0.01
2014-2-23,30,23,18,29,22,18,100,95,73,0.00,40.00,4,0,8,0.01
2014-2-24,28,22,16,28,20,13,100,89,63,0.00,40.00,6,1,9,0.02
2014-2-25,28,18,6,16,14,6,100,87,58,0.00,40.00,5,1,9,0.01
2014-2-26,29,12,2,20,9,2,100,89,57,0.00,40.00,5,1,7,0.00
2014-2-27,36,24,12,36,22,12,100,91,59,0.00,40.00,1,0,6,0.05
2014-2-28,32,24,8,32,22,4,100,92,79,0.00,40.00,8,2,17,0.02
2014-3-1,9,3,-2,4,-4,-100,91,73,54,0.00,40.00,6,2,14,0.01
2014-3-2,40,20,5,35,13,0,100,76,56,0.00,40.00,12,3,24,0.54
2014-3-3,42,36,32,39,35,32,100,97,73,0.00,40.00,9,1,21,0.79
2014-3-4,49,37,31,35,29,20,100,78,33,0.00,40.00,7,2,17,0.10
2014-3-5,48,40,32,40,30,24,100,73,40,0.00,40.00,13,4,24,0.07
2014-3-6,44,37,32,41,36,32,100,95,75,0.00,40.00,14,4,29,0.77
2014-3-7,46,36,27,35,31,27,100,85,47,0.00,40.00,4,1,7,0.04
2014-3-8,51,35,20,27,21,-100,100,66,30,0.00,40.00,14,4,26,0.01
2014-3-9,50,45,39,40,32,20,93,63,36,0.00,40.00,8,4,19,0.01
2014-3-10,42,36,32,40,36,32,100,100,93,0.00,40.00,3,0,13,0.66
2014-3-11,43,35,28,33,26,17,100,76,34,0.00,40.00,4,0,9,0.02
2014-3-12,49,30,18,27,21,16,100,73,27,0.00,40.00,5,1,8,0.01
2014-3-13,53,34,20,27,22,19,100,68,29,0.00,40.00,5,1,11,0.00
2014-3-14,46,33,23,38,27,21,100,83,49,0.00,40.00,6,1,17,0.02
2014-3-15,42,33,26,32,27,-100,100,84,46,0.00,40.00,6,1,9,0.12
2014-3-16,60,40,25,31,20,6,100,62,13,0.00,40.00,8,2,29,0.06
2014-3-17,38,35,32,33,24,14,100,64,41,0.00,40.00,8,2,19,0.04
2014-3-18,37,30,23,28,20,13,100,71,38,0.00,40.00,6,1,14,0.01
2014-3-19,48,29,16,20,16,12,100,67,24,0.00,40.00,10,2,22,0.01
2014-3-20,41,34,24,33,15,6,99,47,30,0.00,40.00,9,3,28,0.00
2014-3-21,39,25,12,14,11,7,99,58,29,0.00,40.00,6,2,13,0.00
2014-3-22,42,28,21,21,14,-100,94,61,32,0.00,40.00,6,2,11,0.00
2014-3-23,42,30,20,21,18,16,95,65,35,0.00,40.00,5,1,14,0.00
2014-3-24,51,41,27,20,17,15,73,39,25,0.00,40.00,6,3,12,0.00
2014-3-25,61,41,25,22,18,11,86,48,14,0.00,40.00,13,3,26,0.00
2014-3-26,48,39,32,37,28,13,100,71,24,0.00,40.00,5,2,19,0.00
2014-3-27,44,35,28,32,26,18,100,75,37,0.00,40.00,12,2,22,0.00
2014-3-28,49,37,28,34,27,21,100,73,35,0.00,40.00,8,3,20,0.02
2014-3-29,44,40,34,38,30,-100,100,73,49,0.00,40.00,7,2,20,0.13
2014-3-30,43,35,30,34,31,21,100,88,45,0.00,40.00,5,1,16,0.11
2014-3-31,44,32,22,34,25,17,100,79,39,0.00,40.00,7,2,14,0.10
2014-4-1,53,40,25,31,25,13,100,62,20,0.00,40.00,7,2,16,0.00
2014-4-2,46,38,32,32,26,16,100,65,30,0.00,40.00,11,2,20,0.00
2014-4-3,54,37,24,27,19,1,100,60,13,0.00,40.00,8,2,19,0.00
2014-4-4,51,36,27,39,24,17,100,64,33,0.00,40.00,14,3,24,0.03
2014-4-5,48,37,29,34,26,-100,100,73,31,0.00,40.00,8,2,18,0.03
2014-4-6,49,40,32,37,29,22,100,72,34,0.00,40.00,11,3,24,0.00
2014-4-7,61,46,35,34,31,29,94,61,32,0.00,40.00,9,2,20,0.00
2014-4-8,70,48,30,35,29,24,100,60,18,0.00,40.00,8,2,26,0.00
2014-4-9,54,44,35,38,31,24,100,64,35,0.00,40.00,13,3,29,0.01
2014-4-10,58,44,29,30,22,14,100,52,18,0.00,40.00,9,2,18,0.00
2014-4-11,64,45,28,27,24,21,95,50,21,0.00,40.00,12,3,21,0.00
2014-4-12,54,40,29,32,24,-100,100,61,25,0.00,40.00,10,3,22,0.00
2014-4-13,45,31,23,29,17,-3,100,62,17,0.00,40.00,10,4,19,0.05
2014-4-14,59,31,18,20,10,6,74,47,12,0.00,40.00,5,1,11,0.01
2014-4-15,45,38,31,30,22,17,75,54,40,0.00,40.00,11,2,22,0.00
2014-4-16,50,39,28,26,22,16,90,53,29,0.00,40.00,9,2,17,0.00
2014-4-17,60,45,32,37,27,19,89,53,29,0.00,40.00,10,2,22,0.00
2014-4-18,48,43,33,42,26,5,100,60,18,0.00,40.00,10,3,23,0.14
2014-4-19,67,43,22,22,15,-100,84,41,13,0.00,40.00,9,3,22,0.02
2014-4-20,59,46,33,33,22,13,82,44,16,0.00,40.00,6,2,14,0.00
2014-4-21,67,47,27,28,21,15,89,45,13,0.00,40.00,7,2,18,0.00
2014-4-22,50,41,33,43,33,22,100,76,39,0.00,40.00,5,1,13,0.33
2014-4-23,45,36,29,35,30,22,100,81,39,0.00,40.00,10,2,34,0.14
2014-4-24,51,40,33,42,34,30,100,83,46,0.00,40.00,7,2,19,0.17
2014-4-25,51,41,33,43,36,32,100,85,52,0.00,40.00,6,1,12,0.17
2014-4-26,41,39,36,41,36,28,100,90,60,0.00,40.00,4,1,10,0.23
2014-4-28,46,39,32,24,20,18,71,47,35,0.00,40.00,10,3,17,0.00
2014-4-29,56,39,23,25,22,19,100,59,26,0.00,40.00,8,2,17,0.00
2014-4-30,66,45,27,27,23,18,99,50,16,0.00,40.00,8,2,18,0.00
2014-5-1,74,52,31,33,27,22,93,46,17,0.00,40.00,8,2,14,0.00
2014-5-2,71,54,35,34,30,24,92,47,18,0.00,40.00,9,2,24,0.00
2014-5-3,70,53,36,39,31,-100,98,50,20,0.00,40.00,9,2,21,0.00
2014-5-4,58,48,40,47,38,33,100,72,40,0.00,40.00,7,2,17,0.09
2014-5-5,52,41,32,42,36,32,100,85,50,0.00,40.00,9,2,19,0.03
2014-5-6,55,42,29,36,29,22,100,67,29,0.00,40.00,11,4,19,0.01
2014-5-7,43,43,43,34,34,34,69,69,69,0.00,40.00,6,6,6,0.00
2014-5-13,62,56,43,21,17,14,41,23,16,0.00,40.00,6,2,17,0.00
2014-5-14,69,49,29,32,26,21,92,47,21,0.00,40.00,8,2,18,0.00
2014-5-15,76,55,33,39,31,22,100,51,14,0.00,40.00,6,2,14,0.00
2014-5-16,71,56,41,51,36,31,99,52,27,0.00,40.00,10,2,29,0.04
2014-5-17,72,54,40,50,40,-100,100,69,23,0.00,40.00,7,2,22,0.04
2014-5-18,51,44,36,42,39,32,100,84,56,0.00,40.00,5,1,23,0.31
2014-5-19,59,45,34,43,32,-100,100,69,37,0.00,40.00,4,1,16,0.04
2014-5-20,67,48,31,37,33,-100,100,64,26,0.00,40.00,9,2,18,0.02
2014-5-21,73,54,32,38,35,32,100,57,23,0.00,40.00,10,4,18,0.00
2014-5-22,77,59,39,43,36,-100,100,51,20,0.00,40.00,7,2,18,0.00
2014-5-23,79,60,38,40,35,27,99,47,15,0.00,40.00,8,2,15,0.00
2014-5-24,68,55,44,46,41,-100,94,62,41,0.00,40.00,10,3,18,0.00
2014-5-25,73,56,37,44,39,35,100,62,25,0.00,40.00,7,3,15,0.00
2014-5-26,72,57,41,45,40,38,100,59,30,0.00,40.00,10,3,20,0.00
2014-5-27,74,56,37,45,41,37,100,64,28,0.00,40.00,9,3,19,0.00
2014-5-28,68,54,42,46,42,32,100,68,37,0.00,40.00,12,4,23,0.00
2014-5-29,66,49,33,34,28,21,100,53,20,0.00,40.00,7,2,15,0.00
2014-5-30,75,52,31,32,28,23,98,48,16,0.00,40.00,10,3,17,0.00
2014-5-31,68,56,47,39,34,-100,61,45,31,0.00,40.00,10,2,23,0.01
2014-6-1,68,51,39,44,39,35,100,70,30,0.00,40.00,7,2,15,0.03
2014-6-2,77,67,49,43,32,27,68,30,16,0.00,40.00,7,3,14,0.01
2014-6-3,74,57,44,47,37,32,78,51,25,0.00,40.00,7,3,30,0.07
2014-6-4,74,55,36,43,36,26,100,59,19,0.00,40.00,8,3,19,0.07
2014-6-5,74,56,35,37,32,28,99,47,20,0.00,40.00,10,3,25,0.00
2014-6-6,70,54,34,33,26,19,86,41,15,0.00,40.00,8,3,16,0.00
2014-6-7,69,52,34,34,26,-100,84,42,17,0.00,40.00,9,2,17,0.00
2014-6-8,73,58,41,37,32,26,72,41,17,0.00,40.00,9,3,17,0.00
2014-6-9,74,59,39,40,34,32,82,45,23,0.00,40.00,8,2,20,0.00
2014-6-10,74,59,42,41,32,26,79,41,18,0.00,40.00,11,3,38,0.00
2014-6-11,73,56,37,36,30,27,83,43,19,0.00,40.00,8,2,17,0.00
2014-6-12,82,59,36,38,32,26,87,44,13,0.00,40.00,11,3,20,0.00
2014-6-13,62,53,42,50,40,28,100,64,34,0.00,40.00,12,3,21,0.04
2014-6-14,59,48,35,38,34,-100,100,66,37,0.00,40.00,6,2,17,0.02
2014-6-15,67,50,34,48,37,26,100,69,21,0.00,40.00,9,2,25,0.06
2014-6-16,55,45,39,46,42,38,100,90,52,0.00,40.00,11,2,23,0.58
2014-6-17,52,44,38,42,38,34,100,84,52,0.00,40.00,8,2,20,0.60
2014-6-18,58,46,36,48,39,30,100,81,39,0.00,40.00,6,1,13,0.14
2014-6-19,75,57,41,49,42,35,100,66,28,0.00,40.00,8,2,17,0.03
2014-6-20,74,58,43,52,46,41,100,67,33,0.00,40.00,7,1,19,0.01
2014-6-21,77,60,46,51,41,-100,100,58,23,0.00,40.00,9,2,14,0.01
2014-6-22,73,57,43,45,41,37,94,58,33,0.00,40.00,15,2,23,0.00
2014-6-23,78,56,39,47,43,39,100,70,26,0.00,40.00,7,2,13,0.00
2014-6-24,77,61,47,58,46,42,100,63,30,0.00,40.00,11,2,22,0.32
2014-6-25,74,59,49,59,52,46,100,82,38,0.00,40.00,8,1,13,0.36
2014-6-26,67,57,51,60,55,51,100,95,63,0.00,40.00,4,1,13,0.68
2014-6-27,65,53,48,56,51,47,100,93,53,0.00,40.00,12,1,29,0.30
2014-6-28,65,53,45,52,43,-100,100,76,40,0.00,40.00,6,2,16,0.29
2014-6-29,70,57,41,46,40,31,100,58,28,0.00,40.00,8,3,18,0.01
2014-6-30,75,55,38,42,38,34,100,59,23,0.00,40.00,5,2,15,0.00
2014-7-1,84,63,40,45,42,37,100,54,19,0.00,40.00,7,3,13,0.00
2014-7-2,91,69,46,51,43,35,100,50,16,0.00,40.00,8,3,37,0.00
2014-7-3,89,67,49,62,51,44,100,66,22,0.00,40.00,9,2,20,0.14
2014-7-4,87,66,50,60,54,48,100,72,29,0.00,40.00,3,1,17,0.14
2014-7-5,89,69,53,59,47,-100,100,57,18,0.00,40.00,6,2,20,0.00
2014-7-6,91,70,48,50,45,40,100,49,19,0.00,40.00,5,2,16,0.00
2014-7-7,88,70,49,49,44,36,94,46,18,0.00,40.00,6,2,13,0.00
2014-7-8,91,70,50,53,48,39,100,53,20,0.00,40.00,6,2,15,0.00
2014-7-9,86,66,49,52,45,38,93,53,19,0.00,40.00,9,2,22,0.00
2014-7-10,92,73,48,55,46,35,100,51,14,0.00,40.00,5,2,12,0.00
2014-7-11,91,71,48,46,43,39,86,44,17,0.00,40.00,10,3,17,0.00
2014-7-12,91,71,51,49,46,42,89,45,20,0.00,40.00,8,2,16,0.00
2014-7-13,91,73,52,49,42,33,86,40,13,0.00,40.00,7,2,16,0.00
2014-7-14,88,70,55,66,50,38,97,52,26,0.00,40.00,10,2,21,0.04
2014-7-15,82,67,52,61,55,47,100,74,31,0.00,40.00,12,3,23,0.04
2014-7-16,87,67,46,56,49,37,100,64,17,0.00,40.00,7,2,16,0.02
2014-7-17,92,72,50,54,44,32,100,48,15,0.00,40.00,8,2,21,0.00
2014-7-18,87,68,47,41,36,26,75,38,12,0.00,40.00,8,2,17,0.00
2014-7-19,86,67,45,45,39,33,74,41,21,0.00,40.00,11,3,25,0.00
2014-7-20,91,68,48,48,39,21,100,50,9,0.00,40.00,12,4,31,0.00
2014-7-21,85,69,54,59,49,38,100,56,19,0.00,40.00,7,3,17,0.01
2014-7-22,85,71,57,54,44,39,72,42,21,0.00,40.00,15,3,29,0.01
2014-7-23,88,69,53,59,50,41,100,63,19,0.00,40.00,7,3,16,0.27
2014-7-24,73,64,54,54,41,25,91,49,18,0.00,40.00,10,4,23,0.01
2014-7-25,79,57,38,38,33,26,100,51,15,0.00,40.00,9,2,23,0.00
2014-7-26,87,63,38,36,30,24,80,34,12,0.00,40.00,7,2,17,0.00
2014-7-27,94,70,41,38,31,27,60,29,10,0.00,40.00,7,2,15,0.00
2014-7-28,86,70,49,47,38,34,59,34,18,0.00,40.00,6,2,13,0.00
2014-7-29,93,73,49,43,36,15,64,32,6,0.00,40.00,11,3,20,0.00
2014-7-30,87,72,55,45,40,36,59,35,17,0.00,40.00,9,2,21,0.00
2014-7-31,92,69,48,46,36,31,73,39,12,0.00,40.00,9,2,21,0.00
2014-8-1,85,70,52,51,40,36,58,35,20,0.00,40.00,5,1,23,0.00
2014-8-2,88,68,50,50,42,39,71,44,18,0.00,40.00,7,2,16,0.00
2014-8-3,87,70,53,54,45,37,88,47,21,0.00,40.00,6,2,13,0.07
2014-8-4,88,65,51,57,45,37,91,52,22,0.00,40.00,11,2,21,0.33
2014-8-5,85,64,48,55,49,40,100,67,22,0.00,40.00,6,2,21,0.33
2014-8-6,89,66,48,48,44,41,80,52,20,0.00,40.00,6,2,12,0.00
2014-8-7,89,78,58,48,41,34,65,30,17,0.00,40.00,8,4,15,0.00
2014-8-8,78,61,51,53,44,38,83,56,26,0.00,40.00,17,2,31,0.04
2014-8-9,87,64,45,52,44,35,100,58,17,0.00,40.00,6,2,14,0.03
2014-8-10,91,72,44,42,38,35,70,33,16,0.00,40.00,8,3,14,0.00
2014-8-11,94,70,47,41,38,34,66,36,13,0.00,40.00,8,2,18,0.00
2014-8-12,82,64,52,55,46,39,81,54,39,0.00,40.00,9,2,24,0.04
2014-8-13,85,64,51,59,51,47,100,67,28,0.00,40.00,12,2,42,0.35
2014-8-14,80,66,54,57,53,44,100,70,29,0.00,40.00,8,2,18,0.48
2014-8-15,74,60,48,54,51,47,100,75,41,0.00,40.00,9,2,16,0.08
2014-8-16,81,63,50,51,48,44,91,62,29,0.00,40.00,6,1,17,0.01
2014-8-17,82,63,46,48,44,40,92,56,23,0.00,40.00,7,2,18,0.00
2014-8-18,89,66,43,44,40,37,87,46,18,0.00,40.00,9,2,17,0.00
2014-8-19,82,66,44,41,39,35,71,40,22,0.00,40.00,9,3,27,0.00
2014-8-20,74,59,45,49,42,38,78,56,34,0.00,40.00,8,2,19,0.13
2014-8-21,75,60,46,51,48,43,100,68,37,0.00,40.00,8,3,20,0.13
2014-8-22,62,53,46,49,46,43,99,78,57,0.00,40.00,6,2,16,0.05
2014-8-23,50,48,46,49,46,45,100,94,92,0.00,40.00,5,1,16,1.08
2014-8-24,64,53,42,47,44,39,100,75,44,0.00,40.00,9,2,16,0.04
2014-8-25,73,59,47,46,42,40,84,58,32,0.00,40.00,7,1,13,0.00
2014-8-26,79,61,43,47,43,38,95,58,25,0.00,40.00,5,2,16,0.00
2014-8-27,85,61,40,44,40,38,91,53,22,0.00,40.00,7,2,16,0.00
2014-8-28,86,65,44,50,41,35,88,47,18,0.00,40.00,11,2,22,0.00
2014-8-29,86,64,43,45,39,32,85,46,16,0.00,40.00,6,2,31,0.04
2014-8-30,72,59,50,50,43,35,93,57,32,0.00,40.00,7,2,16,0.06
2014-8-31,68,58,48,48,40,34,98,56,31,0.00,40.00,9,2,16,0.01
2014-9-1,74,55,38,39,35,32,88,52,23,0.00,40.00,8,2,17,0.01
2014-9-2,82,61,35,41,32,28,91,44,15,0.00,40.00,8,3,16,0.00
2014-9-3,62,51,39,34,29,22,75,46,22,0.00,40.00,10,2,23,0.00
2014-9-4,70,48,30,33,28,22,89,53,20,0.00,40.00,7,2,13,0.00
2014-9-5,75,52,32,35,29,21,91,49,14,0.00,40.00,9,3,14,0.00
2014-9-6,82,56,32,33,27,23,77,39,12,0.00,40.00,8,2,16,0.00
2014-9-7,86,60,35,35,27,18,73,36,9,0.00,40.00,9,2,21,0.00
2014-9-8,84,60,37,32,24,16,60,31,9,0.00,40.00,8,2,21,0.00
2014-9-9,74,56,39,37,27,23,58,36,18,0.00,40.00,11,2,20,0.00
2014-9-10,60,48,38,42,33,28,87,60,35,0.00,40.00,14,4,24,0.01
2014-9-11,57,42,32,33,25,18,84,56,23,0.00,40.00,7,3,16,0.01
2014-9-12,75,46,22,24,18,14,83,43,10,0.00,40.00,12,3,21,0.01
2014-9-13,72,49,28,30,24,21,75,41,19,0.00,40.00,7,2,14,0.00
2014-9-14,80,53,31,31,27,19,80,44,10,0.00,40.00,9,2,17,0.00
2014-9-15,86,59,33,28,24,21,62,32,10,0.00,40.00,6,2,16,0.00
2014-9-16,81,60,43,42,34,24,52,38,23,0.00,40.00,11,3,23,0.00
2014-9-17,81,62,42,44,38,32,83,48,18,0.00,40.00,8,2,28,0.00
2014-9-18,77,65,54,46,40,35,55,40,28,0.00,40.00,9,2,23,0.00
2014-9-19,76,59,47,42,40,38,74,52,28,0.00,40.00,8,2,19,0.00
2014-9-20,81,57,38,40,37,33,94,53,21,0.00,40.00,9,2,17,0.00
2014-9-21,88,65,37,36,34,30,77,36,14,0.00,40.00,6,2,12,0.00
2014-9-22,83,64,49,43,37,33,58,41,21,0.00,40.00,8,2,17,0.00
2014-9-23,82,60,43,45,41,37,80,52,27,0.00,40.00,10,2,20,0.00
2014-9-24,89,69,50,43,39,33,70,40,14,0.00,40.00,13,5,27,0.00
2014-9-25,89,71,44,37,31,17,65,29,7,0.00,40.00,12,4,26,0.00
2014-9-26,70,59,47,52,44,37,98,63,31,0.00,40.00,8,2,19,0.28
2014-9-27,50,47,44,46,42,38,99,83,70,0.00,40.00,2,0,9,0.14
2014-9-28,54,50,47,46,43,41,92,80,68,0.00,40.00,4,1,11,0.01
2014-9-29,59,50,41,49,43,39,100,80,52,0.00,40.00,5,1,13,0.15
2014-9-30,56,47,38,49,41,31,100,80,41,0.00,40.00,8,2,16,0.22
2014-10-1,54,42,34,36,31,26,94,71,35,0.00,40.00,10,2,19,0.01
2014-10-2,54,38,28,30,26,20,95,67,30,0.00,40.00,10,2,18,0.00
2014-10-3,67,43,25,29,23,19,88,53,16,0.00,40.00,6,1,12,0.00
2014-10-4,74,52,30,35,29,21,79,44,21,0.00,40.00,8,2,19,0.00
2014-10-5,75,57,42,37,34,29,75,46,22,0.00,40.00,10,2,18,0.00
2014-10-6,77,58,37,41,35,29,82,47,25,0.00,40.00,9,2,19,0.00
2014-10-7,80,57,39,42,37,35,91,53,21,0.00,40.00,7,2,20,0.00
2014-10-8,77,54,36,39,34,32,86,52,21,0.00,40.00,7,2,15,0.00
2014-10-9,71,52,36,35,33,30,88,53,24,0.00,40.00,8,2,15,0.00
2014-10-10,73,54,34,37,34,30,92,52,27,0.00,40.00,7,2,13,0.00
2014-10-11,65,45,36,46,34,30,90,68,28,0.00,40.00,7,2,24,0.18
2014-10-12,54,43,37,40,35,29,97,76,41,0.00,40.00,7,2,15,0.27
2014-10-13,64,47,33,34,29,26,86,56,27,0.00,40.00,12,4,22,0.01
2014-10-14,71,60,49,30,27,24,43,29,20,0.00,40.00,18,9,34,0.00
2014-10-15,64,47,36,36,30,26,95,56,26,0.00,40.00,16,3,38,0.16
2014-10-16,57,41,33,38,32,25,98,75,32,0.00,40.00,5,1,10,0.16
2014-10-17,65,42,25,31,24,17,93,58,17,0.00,40.00,11,2,21,0.00
2014-10-18,68,48,33,34,30,27,80,52,24,0.00,40.00,7,2,14,0.00
2014-10-19,73,48,31,32,28,22,96,55,16,0.00,40.00,10,3,21,0.00
2014-10-20,75,54,35,30,27,23,65,40,19,0.00,40.00,11,3,20,0.00
2014-10-21,63,46,37,43,37,29,94,75,27,0.00,40.00,8,1,25,0.69
2014-10-22,55,42,29,36,31,28,98,70,40,0.00,40.00,12,4,22,0.01
2014-10-23,55,49,44,45,36,28,99,64,42,0.00,40.00,12,4,23,0.10
2014-10-24,49,44,39,44,41,38,99,92,81,0.00,40.00,3,0,6,0.15
2014-10-25,66,48,33,40,35,30,100,69,26,0.00,40.00,13,4,32,0.01
2014-10-26,54,42,33,38,32,24,97,69,40,0.00,40.00,9,3,27,0.20
2014-10-27,44,35,30,31,25,17,95,70,36,0.00,40.00,7,2,16,0.01
2014-10-28,54,38,25,27,23,19,89,60,32,0.00,40.00,9,3,17,0.00
2014-10-29,58,44,36,41,34,26,99,71,40,0.00,40.00,9,3,21,0.13
2014-10-30,63,44,33,37,32,29,93,68,29,0.00,40.00,6,2,13,0.01
2014-10-31,70,50,40,34,30,25,73,50,19,0.00,40.00,12,2,23,0.00
2014-11-1,50,38,30,40,31,26,98,76,52,0.00,40.00,3,0,17,0.46
2014-11-2,41,36,29,36,26,19,99,70,43,0.00,40.00,7,2,19,0.46
2014-11-3,45,35,26,28,26,24,92,70,50,0.00,40.00,7,2,16,0.00
2014-11-4,48,42,39,36,29,24,75,59,52,0.00,40.00,8,5,24,0.01
2014-11-5,52,44,33,36,33,30,93,67,42,0.00,40.00,6,2,24,0.01
2014-11-6,60,49,36,40,30,28,89,52,32,0.00,40.00,13,5,28,0.00
2014-11-7,55,44,30,43,32,26,96,65,36,0.00,40.00,12,2,31,0.17
2014-11-8,56,36,25,30,26,23,94,69,32,0.00,40.00,5,1,8,0.00
2014-11-9,62,47,32,42,33,23,91,62,27,0.00,40.00,16,4,41,0.11
2014-11-10,36,24,14,33,18,4,96,79,64,0.00,40.00,11,2,17,0.05
2014-11-11,14,6,-6,5,-6,-13,71,57,41,0.00,40.00,8,2,15,0.01
2014-11-12,14,-1,-11,-4,-12,-19,71,60,41,0.00,40.00,6,1,11,0.00
2014-11-13,20,4,-11,6,-6,-19,74,63,42,0.00,40.00,4,1,11,0.00
2014-11-14,15,12,8,8,5,3,79,71,61,0.00,40.00,6,1,12,0.00
2014-11-15,19,6,-6,3,-5,-13,79,61,30,0.00,40.00,4,1,8,0.00
2014-11-16,30,9,-4,8,-2,-12,79,61,33,0.00,40.00,4,0,8,0.00
2014-11-17,32,13,1,12,3,-6,82,66,37,0.00,40.00,3,0,6,0.00
2014-11-18,41,23,10,21,12,6,83,65,33,0.00,40.00,9,1,16,0.02
2014-11-19,40,29,19,24,19,15,86,67,41,0.00,40.00,3,1,8,0.05
2014-11-20,39,32,27,27,22,17,81,65,54,0.00,40.00,4,0,9,0.02
2014-11-21,41,34,26,30,23,20,92,68,47,0.00,40.00,10,4,21,0.01
2014-11-22,45,36,30,33,25,17,90,67,37,0.00,40.00,11,4,27,0.33
2014-11-23,37,31,27,28,24,18,92,78,49,0.00,40.00,7,2,16,0.01
2014-11-24,37,30,25,27,23,16,93,75,49,0.00,40.00,7,1,15,0.10
2014-11-25,34,32,30,32,29,19,96,90,57,0.00,40.00,5,0,15,0.13
2014-11-26,45,35,30,38,32,29,97,91,74,0.00,40.00,3,1,11,0.57
2014-11-27,57,44,31,36,33,26,97,68,41,0.00,40.00,7,5,20,0.03
2014-11-28,47,42,39,36,31,21,84,64,35,0.00,40.00,8,4,27,0.09
2014-11-29,44,34,21,33,27,16,92,75,56,0.00,40.00,9,3,28,0.12
2014-11-30,27,15,5,16,6,-1,81,69,40,0.00,40.00,3,0,6,0.05
2014-12-1,33,19,3,26,9,-3,83,67,45,0.00,40.00,6,1,16,0.01
2014-12-2,38,28,17,25,16,12,83,61,39,0.00,40.00,7,2,20,0.01
2014-12-3,33,23,14,24,16,10,83,75,58,0.00,40.00,3,0,7,0.01
2014-12-4,41,37,30,36,32,24,96,82,65,0.00,40.00,8,2,23,0.06
2014-12-5,47,37,32,35,31,28,98,81,55,0.00,40.00,7,1,15,0.01
2014-12-6,46,36,31,36,29,25,89,74,54,0.00,40.00,12,3,27,0.03
2014-12-7,48,36,28,30,26,21,94,68,41,0.00,40.00,8,2,16,0.01
2014-12-8,48,36,28,26,24,22,81,63,40,0.00,40.00,10,3,20,0.00
2014-12-9,52,41,32,28,26,23,75,54,38,0.00,40.00,10,5,18,0.00
2014-12-10,51,42,33,29,25,24,75,50,38,0.00,40.00,17,7,30,0.00
2014-12-11,53,47,44,25,22,21,44,36,31,0.00,40.00,14,8,27,0.00
2014-12-12,57,43,32,27,26,23,76,53,31,0.00,40.00,8,2,25,0.00
2014-12-13,38,33,28,32,29,25,96,88,60,0.00,40.00,4,0,9,0.01
2014-12-14,33,28,26,27,25,17,95,86,67,0.00,40.00,5,0,7,0.01
2014-12-15,34,22,13,19,14,9,86,71,52,0.00,40.00,9,2,20,0.01
2014-12-16,34,27,19,25,18,13,80,69,55,0.00,40.00,5,1,11,0.00
2014-12-17,40,33,26,25,22,19,81,66,51,0.00,40.00,10,3,20,0.01
2014-12-18,38,32,25,21,19,16,79,58,48,0.00,40.00,9,4,20,0.01
2014-12-19,38,34,30,31,24,19,92,66,54,0.00,40.00,11,5,24,0.04
2014-12-20,39,29,23,28,22,21,93,74,55,0.00,40.00,12,5,22,0.08
2014-12-21,39,35,32,34,31,27,97,86,67,0.00,40.00,8,2,33,0.51
2014-12-22,37,30,23,31,27,19,97,87,70,0.00,40.00,3,0,9,0.09
2014-12-23,33,24,15,21,17,12,88,74,53,0.00,40.00,7,1,16,0.01
2014-12-24,37,34,29,30,23,17,96,66,53,0.00,40.00,14,7,28,0.01
2014-12-25,35,27,23,27,22,19,92,80,53,0.00,40.00,3,0,14,0.01
2014-12-26,29,21,14,19,16,8,87,79,62,0.00,40.00,0,0,4,0.01
2014-12-27,27,20,10,17,10,5,80,63,51,0.00,40.00,10,5,23,0.00
2014-12-28,31,24,19,20,17,13,86,75,58,0.00,40.00,5,1,17,0.00
2014-12-29,19,8,-8,13,-2,-16,76,64,53,0.00,40.00,5,1,13,0.00
2014-12-30,1,-10,-19,-16,-21,-29,68,58,39,0.00,40.00,0,0,0,0.00
2014-12-31,14,-1,-12,-3,-12,-21,72,60,35,0.00,40.00,1,0,6,0.00
2015-1-1,21,2,-9,4,-8,-17,77,65,43,0.00,40.00,3,0,10,0.00
2015-1-2,29,14,-2,25,7,-8,88,75,63,0.00,40.00,3,0,15,0.00